| time (UTC) | temp F | wind direction | speed knots | gust knots | rain 1hr in | rain 24hr in | rain mn in | humidity % | barometer mb |
| 20260506164834 | 0 | 135 | 0.0 | 0.0 | 0.00 | 0.01 | 0.01 | 1001.6 | |
| 20260506164034 | 0 | 45 | 0.0 | 0.0 | 0.00 | 0.01 | 0.01 | 1001.8 | |
| 20260506163230 | 0 | 135 | 0.0 | 0.0 | 0.00 | 0.01 | 0.01 | 1001.8 | |
| 20260506162430 | 0 | 135 | 0.0 | 0.0 | 0.00 | 0.01 | 0.01 | 1002.0 | |
| 20260506161627 | 0 | 180 | 0.0 | 0.0 | 0.00 | 0.01 | 0.01 | 1002.2 | |
| 20260506160821 | 0 | 180 | 0.0 | 0.0 | 0.00 | 0.01 | 0.01 | 1002.1 | |
| 20260506160012 | 0 | 180 | 0.0 | 0.0 | 0.00 | 0.01 | 0.01 | 1002.1 | |
| 20260506155202 | 0 | 203 | 0.0 | 0.0 | 0.00 | 0.01 | 0.01 | 1002.2 | |
| 20260506154401 | 0 | 203 | 0.0 | 0.0 | 0.00 | 0.01 | 0.01 | 1002.5 | |
| 20260506153601 | 0 | 180 | 0.0 | 0.0 | 0.00 | 0.01 | 0.01 | 1002.4 | |
| 20260506152759 | 0 | 158 | 0.0 | 0.0 | 0.00 | 0.01 | 0.01 | 1002.5 | |
| 20260506151958 | 0 | 180 | 0.0 | 0.0 | 0.00 | 0.01 | 0.01 | 1002.5 | |
| 20260506151158 | 0 | 135 | 0.0 | 0.0 | 0.00 | 0.01 | 0.01 | 1002.3 | |
| 20260506150356 | 0 | 180 | 0.0 | 0.0 | 0.00 | 0.01 | 0.01 | 1001.8 | |
| 20260506145555 | 0 | 180 | 0.0 | 0.0 | 0.00 | 0.01 | 0.01 | 1001.9 | |
| 20260506144750 | 0 | 180 | 0.0 | 0.0 | 0.00 | 0.01 | 0.01 | 1002.4 | |
| 20260506143943 | 0 | 135 | 0.0 | 0.0 | 0.00 | 0.01 | 0.01 | 1003.0 | |
| 20260506143140 | 0 | 180 | 0.0 | 0.0 | 0.00 | 0.01 | 0.01 | 1003.0 | |
| 20260506142337 | 0 | 135 | 0.0 | 0.0 | 0.00 | 0.01 | 0.01 | 1003.1 | |
| 20260506141537 | 0 | 180 | 0.0 | 0.0 | 0.00 | 0.01 | 0.01 | 1003.2 | |
| 20260506140737 | 0 | 135 | 0.0 | 0.0 | 0.00 | 0.01 | 0.01 | 1003.2 | |
| 20260506135937 | 0 | 203 | 0.0 | 0.0 | 0.00 | 0.01 | 0.01 | 1003.3 | |
| 20260506135136 | 0 | 180 | 0.0 | 0.0 | 0.00 | 0.01 | 0.01 | 1003.3 | |
| 20260506134336 | 0 | 180 | 0.0 | 0.0 | 0.00 | 0.01 | 0.01 | 1003.3 | |
| 20260506133537 | 0 | 90 | 0.0 | 0.0 | 0.00 | 0.01 | 0.01 | 1003.2 | |
| 20260506132734 | 0 | 135 | 0.0 | 0.0 | 0.00 | 0.01 | 0.01 | 1003.6 | |
| 20260506131933 | 0 | 180 | 0.0 | 0.0 | 0.00 | 0.01 | 0.01 | 1003.8 | |
| 20260506131134 | 0 | 135 | 0.0 | 0.0 | 0.00 | 0.01 | 0.01 | 1004.0 | |
| 20260506130334 | 0 | 180 | 0.0 | 0.0 | 0.00 | 0.01 | 0.01 | 1004.2 | |
| 20260506125535 | 0 | 203 | 0.0 | 0.0 | 0.00 | 0.01 | 0.01 | 1004.2 | |
| 20260506124733 | 0 | 135 | 0.0 | 0.0 | 0.00 | 0.01 | 0.01 | 1004.0 | |
| 20260506123931 | 0 | 180 | 0.0 | 0.0 | 0.00 | 0.01 | 0.01 | 1003.9 | |
| 20260506123132 | 0 | 135 | 0.0 | 0.0 | 0.00 | 0.01 | 0.01 | 1004.3 | |
| 20260506122331 | 0 | 135 | 0.0 | 0.0 | 0.00 | 0.01 | 0.01 | 1004.3 | |
| 20260506121531 | 0 | 180 | 0.0 | 0.0 | 0.00 | 0.01 | 0.01 | 1004.2 | |
| 20260506120731 | 0 | 180 | 0.0 | 0.0 | 0.00 | 0.01 | 0.01 | 1004.2 | |
| 20260506115930 | 0 | 135 | 0.0 | 0.0 | 0.00 | 0.01 | 0.01 | 1004.1 | |
| 20260506115130 | 0 | 180 | 0.0 | 0.0 | 0.00 | 0.01 | 0.01 | 1004.2 | |
| 20260506114327 | 0 | 135 | 0.0 | 0.0 | 0.00 | 0.01 | 0.01 | 1004.0 | |
| 20260506113526 | 0 | 135 | 0.0 | 0.0 | 0.00 | 0.01 | 0.01 | 1004.3 | |
| 20260506112724 | 0 | 135 | 0.0 | 0.0 | 0.00 | 0.01 | 0.01 | 1004.5 | |
| 20260506111923 | 0 | 248 | 0.0 | 0.0 | 0.00 | 0.01 | 0.01 | 1004.7 | |
| 20260506111124 | 0 | 180 | 0.0 | 0.0 | 0.00 | 0.01 | 0.01 | 1004.5 | |
| 20260506110325 | 0 | 180 | 0.0 | 0.0 | 0.00 | 0.01 | 0.01 | 1004.6 | |
| 20260506105525 | 0 | 248 | 0.0 | 0.0 | 0.00 | 0.01 | 0.01 | 1004.9 | |
| 20260506104724 | 0 | 180 | 0.0 | 0.0 | 0.00 | 0.01 | 0.01 | 1005.0 | |
| 20260506103920 | 0 | 180 | 0.0 | 0.0 | 0.00 | 0.01 | 0.01 | 1004.8 | |
| 20260506103120 | 0 | 248 | 0.0 | 0.0 | 0.00 | 0.01 | 0.01 | 1004.7 | |
| 20260506102320 | 0 | 180 | 0.0 | 0.0 | 0.00 | 0.01 | 0.01 | 1005.0 | |
| 20260506101521 | 0 | 248 | 0.0 | 0.0 | 0.00 | 0.01 | 0.01 | 1005.0 | |
| 20260506100720 | 0 | 135 | 0.0 | 0.0 | 0.00 | 0.01 | 0.01 | 1005.1 | |
| 20260506095921 | 0 | 180 | 0.0 | 0.0 | 0.00 | 0.01 | 0.01 | 1005.2 | |
| 20260506095123 | 0 | 203 | 0.0 | 0.0 | 0.00 | 0.01 | 0.01 | 1005.2 | |
| 20260506094320 | 0 | 180 | 0.0 | 0.0 | 0.00 | 0.01 | 0.01 | 1005.6 | |
| 20260506093521 | 0 | 203 | 0.0 | 0.0 | 0.00 | 0.01 | 0.01 | 1005.5 | |
| 20260506092719 | 0 | 180 | 0.0 | 0.0 | 0.00 | 0.01 | 0.01 | 1005.7 | |
| 20260506091918 | 0 | 203 | 0.0 | 0.0 | 0.00 | 0.01 | 0.01 | 1005.4 | |
| 20260506091121 | 0 | 180 | 0.0 | 4.3 | 0.00 | 0.01 | 0.01 | 1005.6 | |
| 20260506090320 | 0 | 180 | 0.0 | 0.0 | 0.00 | 0.01 | 0.01 | 1005.5 | |
| 20260506085519 | 0 | 180 | 0.0 | 0.0 | 0.00 | 0.01 | 0.01 | 1005.8 | |
| 20260506084718 | 0 | 180 | 0.0 | 0.0 | 0.00 | 0.01 | 0.01 | 1005.7 | |
| 20260506083916 | 0 | 180 | 0.0 | 0.0 | 0.00 | 0.01 | 0.01 | 1005.8 | |
| 20260506083114 | 0 | 180 | 0.0 | 0.0 | 0.00 | 0.01 | 0.01 | 1006.0 | |
| 20260506082315 | 0 | 248 | 0.0 | 0.0 | 0.00 | 0.01 | 0.01 | 1005.8 | |
| 20260506081514 | 0 | 135 | 0.0 | 0.0 | 0.00 | 0.01 | 0.01 | 1005.8 | |
| 20260506080714 | 0 | 180 | 0.0 | 0.0 | 0.00 | 0.01 | 0.01 | 1005.7 | |
| 20260506073508 | 0 | 180 | 0.0 | 0.0 | 0.00 | 0.01 | 0.01 | 1006.2 | |
| 20260506072705 | 0 | 248 | 0.0 | 0.0 | 0.00 | 0.01 | 0.01 | 1006.2 | |
| 20260506071906 | 0 | 248 | 0.0 | 0.0 | 0.00 | 0.01 | 0.01 | 1006.2 | |
| 20260506071106 | 0 | 248 | 0.0 | 0.0 | 0.00 | 0.01 | 0.01 | 1006.2 | |
| 20260506070306 | 0 | 248 | 0.0 | 0.0 | 0.00 | 0.01 | 0.01 | 1006.4 | |
| 20260506062305 | 0 | 203 | 0.0 | 0.0 | 0.00 | 0.01 | 0.01 | 1006.3 | |
| 20260506061502 | 0 | 203 | 0.0 | 0.0 | 0.00 | 0.01 | 0.01 | 1006.2 | |
| 20260506060704 | 0 | 248 | 0.0 | 0.0 | 0.00 | 0.01 | 0.01 | 1006.5 | |
| 20260506051103 | 0 | 248 | 0.0 | 0.0 | 0.00 | 0.01 | 0.01 | 1006.4 | |
| 20260506050304 | 0 | 180 | 0.0 | 0.0 | 0.00 | 0.01 | 0.01 | 1006.4 | |
| 20260506044703 | 0 | 180 | 0.0 | 0.0 | 0.00 | 0.01 | 0.01 | 1006.7 | |
| 20260506043901 | 0 | 180 | 0.0 | 0.0 | 0.00 | 0.01 | 0.01 | 1007.0 | |
| 20260506043059 | 0 | 135 | 0.0 | 0.0 | 0.00 | 0.01 | 0.01 | 1007.1 | |
| 20260506042300 | 0 | 135 | 0.0 | 0.0 | 0.00 | 0.01 | 0.01 | 1007.1 | |
| 20260506041458 | 0 | 135 | 0.0 | 0.0 | 0.00 | 0.01 | 0.01 | 1007.1 | |
| 20260506040658 | 0 | 135 | 0.0 | 0.0 | 0.00 | 0.01 | 0.01 | 1007.1 | |
| 20260506035859 | 0 | 135 | 0.0 | 0.0 | 0.00 | 0.01 | 0.01 | 1006.9 | |
| 20260506035059 | 0 | 180 | 0.0 | 0.0 | 0.00 | 0.01 | 0.01 | 1006.8 | |
| 20260506034257 | 0 | 180 | 0.0 | 0.0 | 0.00 | 0.01 | 0.01 | 1006.7 | |
| 20260506033457 | 0 | 180 | 0.0 | 0.0 | 0.00 | 0.01 | 0.01 | 1006.6 | |
| 20260506032658 | 0 | 180 | 0.0 | 0.0 | 0.00 | 0.01 | 0.01 | 1006.5 | |
| 20260506031859 | 0 | 180 | 0.0 | 0.0 | 0.00 | 0.01 | 0.01 | 1006.6 | |
| 20260506031058 | 0 | 180 | 0.0 | 0.0 | 0.00 | 0.01 | 0.01 | 1006.6 | |
| 20260506030300 | 0 | 180 | 0.0 | 0.0 | 0.00 | 0.01 | 0.01 | 1006.8 | |
| 20260506025501 | 0 | 45 | 0.0 | 0.0 | 0.00 | 0.01 | 0.01 | 1006.7 | |
| 20260506024701 | 0 | 180 | 0.0 | 0.0 | 0.00 | 0.01 | 0.01 | 1006.6 | |
| 20260506023901 | 0 | 45 | 0.0 | 0.0 | 0.00 | 0.01 | 0.01 | 1006.4 | |
| 20260506023102 | 0 | 45 | 0.0 | 0.0 | 0.00 | 0.01 | 0.01 | 1006.3 | |
| 20260506022300 | 0 | 45 | 0.0 | 0.0 | 0.00 | 0.01 | 0.01 | 1006.2 | |
| 20260506021500 | 0 | 45 | 0.0 | 0.0 | 0.00 | 0.01 | 0.01 | 1006.1 | |
| 20260506020700 | 0 | 45 | 0.0 | 0.0 | 0.00 | 0.01 | 0.01 | 1005.9 | |
| 20260506015901 | 0 | 293 | 0.0 | 0.0 | 0.00 | 0.01 | 0.01 | 1005.8 | |
| 20260506015101 | 0 | 293 | 0.0 | 0.0 | 0.00 | 0.01 | 0.01 | 1005.8 | |
| 20260506014301 | 0 | 293 | 0.0 | 0.0 | 0.00 | 0.01 | 0.01 | 1005.9 | |
| 20260506013500 | 0 | 293 | 0.0 | 0.0 | 0.00 | 0.01 | 0.01 | 1005.7 | |
| 20260506012700 | 0 | 45 | 0.0 | 0.0 | 0.00 | 0.01 | 0.01 | 1005.5 | |
| 20260506011900 | 0 | 45 | 0.0 | 0.0 | 0.00 | 0.01 | 0.01 | 1005.3 | |
| 20260506011100 | 0 | 203 | 0.0 | 0.0 | 0.00 | 0.01 | 0.01 | 1005.4 | |
| 20260506010255 | 0 | 45 | 0.0 | 0.0 | 0.00 | 0.01 | 0.01 | 1005.3 | |
| 20260506005454 | 0 | 45 | 0.0 | 0.0 | 0.00 | 0.01 | 0.01 | 1005.2 | |
| 20260506004655 | 0 | 45 | 0.0 | 0.0 | 0.00 | 0.01 | 0.01 | 1005.3 | |
| 20260506003854 | 0 | 90 | 0.0 | 0.0 | 0.00 | 0.01 | 0.01 | 1005.4 | |
| 20260506003054 | 0 | 180 | 0.0 | 0.0 | 0.00 | 0.01 | 0.01 | 1005.5 | |
| 20260506002252 | 0 | 180 | 0.0 | 0.0 | 0.00 | 0.01 | 0.01 | 1005.4 | |
| 20260506001451 | 0 | 180 | 0.0 | 0.0 | 0.00 | 0.01 | 0.01 | 1005.5 | |
| 20260506000652 | 0 | 180 | 0.0 | 0.0 | 0.00 | 0.01 | 0.01 | 1005.6 | |
| 20260505235853 | 0 | 180 | 0.0 | 0.0 | 0.01 | 0.01 | 0.01 | 1005.5 | |
| 20260505235052 | 0 | 248 | 0.0 | 0.0 | 0.00 | 0.00 | 0.00 | 1005.5 | |
| 20260505234252 | 0 | 248 | 0.0 | 0.0 | 0.00 | 0.00 | 0.00 | 1005.5 | |
| 20260505233452 | 0 | 180 | 0.0 | 0.0 | 0.00 | 0.00 | 0.00 | 1005.2 | |
| 20260505232653 | 0 | 180 | 0.0 | 0.0 | 0.00 | 0.00 | 0.00 | 1005.1 | |
| 20260505231853 | 0 | 180 | 0.0 | 0.0 | 0.00 | 0.00 | 0.00 | 1005.1 | |
| 20260505231054 | 0 | 180 | 0.0 | 0.0 | 0.00 | 0.00 | 0.00 | 1004.9 | |
| 20260505230249 | 0 | 180 | 0.0 | 0.0 | 0.00 | 0.00 | 0.00 | 1004.7 | |
| 20260505225416 | 0 | 180 | 0.0 | 0.0 | 0.00 | 0.00 | 0.00 | 1004.5 | |
| 20260505224616 | 0 | 180 | 0.0 | 0.0 | 0.00 | 0.00 | 0.00 | 1004.4 | |
| 20260505223812 | 0 | 180 | 0.0 | 0.0 | 0.00 | 0.00 | 0.00 | 1004.5 | |
| 20260505223012 | 0 | 180 | 0.0 | 0.0 | 0.00 | 0.00 | 0.00 | 1004.5 | |
| 20260505222212 | 0 | 203 | 0.0 | 0.0 | 0.00 | 0.00 | 0.00 | 1004.1 | |
| 20260505221412 | 0 | 180 | 0.0 | 0.0 | 0.00 | 0.00 | 0.00 | 1004.2 | |
| 20260505220611 | 0 | 135 | 0.0 | 0.0 | 0.00 | 0.00 | 0.00 | 1003.8 | |
| 20260505215809 | 0 | 135 | 0.0 | 0.0 | 0.00 | 0.00 | 0.00 | 1003.9 | |
| 20260505215008 | 0 | 135 | 0.0 | 0.0 | 0.00 | 0.00 | 0.00 | 1003.9 | |
| 20260505214208 | 0 | 135 | 0.0 | 0.0 | 0.00 | 0.00 | 0.00 | 1003.8 | |
| 20260505213407 | 0 | 135 | 0.0 | 0.0 | 0.00 | 0.00 | 0.00 | 1003.8 | |
| 20260505212606 | 0 | 180 | 0.0 | 0.0 | 0.00 | 0.00 | 0.00 | 1003.7 | |
| 20260505211803 | 0 | 113 | 0.0 | 0.0 | 0.00 | 0.00 | 0.00 | 1003.7 | |
| 20260505211002 | 0 | 135 | 0.0 | 0.0 | 0.00 | 0.00 | 0.00 | 1003.9 | |
| 20260505210157 | 0 | 135 | 0.0 | 0.0 | 0.00 | 0.00 | 0.00 | 1003.8 | |
| 20260505205350 | 0 | 135 | 0.0 | 0.0 | 0.00 | 0.00 | 0.00 | 1003.8 | |
| 20260505204549 | 0 | 180 | 0.0 | 0.0 | 0.00 | 0.00 | 0.00 | 1003.8 | |
| 20260505203741 | 0 | 135 | 0.0 | 0.0 | 0.00 | 0.00 | 0.00 | 1003.8 | |
| 20260505202940 | 0 | 135 | 0.0 | 0.0 | 0.00 | 0.00 | 0.00 | 1003.8 | |
| 20260505202136 | 0 | 180 | 0.0 | 0.0 | 0.00 | 0.00 | 0.00 | 1003.8 | |
| 20260505201336 | 0 | 135 | 0.0 | 1.7 | 0.00 | 0.00 | 0.00 | 1003.7 | |
| 20260505200531 | 0 | 135 | 0.0 | 0.0 | 0.00 | 0.00 | 0.00 | 1003.7 | |
| 20260505195727 | 0 | 180 | 0.0 | 0.9 | 0.00 | 0.00 | 0.00 | 1003.7 | |
| 20260505194918 | 0 | 180 | 0.0 | 6.1 | 0.00 | 0.00 | 0.00 | 1003.6 | |
| 20260505194111 | 0 | 180 | 0.0 | 0.0 | 0.00 | 0.00 | 0.00 | 1003.6 | |
| 20260505193312 | 0 | 135 | 0.0 | 0.0 | 0.00 | 0.00 | 0.00 | 1003.6 | |
| 20260505192458 | 0 | 135 | 0.0 | 0.0 | 0.00 | 0.00 | 0.00 | 1003.6 | |
| 20260505191643 | 0 | 180 | 0.0 | 0.0 | 0.00 | 0.00 | 0.00 | 1003.4 | |
| 20260505190811 | 0 | 180 | 0.0 | 0.0 | 0.00 | 0.00 | 0.00 | 1003.5 | |
| 20260505185929 | 0 | 180 | 0.0 | 0.0 | 0.00 | 0.00 | 0.00 | 1003.4 | |
| 20260505185102 | 0 | 180 | 0.0 | 0.0 | 0.00 | 0.00 | 0.00 | 1003.2 | |
| 20260505184230 | 0 | 135 | 0.0 | 0.0 | 0.00 | 0.00 | 0.00 | 1003.1 | |
| 20260505183409 | 0 | 135 | 0.0 | 0.0 | 0.00 | 0.00 | 0.00 | 1003.1 | |
| 20260505182601 | 0 | 180 | 0.0 | 0.0 | 0.00 | 0.00 | 0.00 | 1003.0 | |
| 20260505181753 | 0 | 135 | 0.0 | 0.0 | 0.00 | 0.00 | 0.00 | 1003.0 | |
| 20260505180946 | 0 | 203 | 0.0 | 0.0 | 0.00 | 0.00 | 0.00 | 1003.0 | |
| 20260505180141 | 0 | 135 | 0.0 | 0.0 | 0.00 | 0.00 | 0.00 | 1003.0 | |
| 20260505175334 | 0 | 135 | 0.0 | 0.0 | 0.00 | 0.00 | 0.00 | 1002.8 | |
| 20260505174531 | 0 | 135 | 0.0 | 0.0 | 0.00 | 0.00 | 0.00 | 1002.8 | |
| 20260505173728 | 0 | 113 | 0.0 | 0.0 | 0.00 | 0.00 | 0.00 | 1002.8 | |
| 20260505172924 | 0 | 180 | 0.0 | 0.0 | 0.00 | 0.00 | 0.00 | 1002.7 | |
| 20260505172115 | 0 | 135 | 0.0 | 0.0 | 0.00 | 0.00 | 0.00 | 1002.7 | |
| 20260505171309 | 0 | 180 | 0.0 | 0.0 | 0.00 | 0.00 | 0.00 | 1002.6 | |
| 20260505170507 | 0 | 135 | 0.0 | 0.0 | 0.00 | 0.00 | 0.00 | 1002.7 | |
| 20260505165700 | 0 | 135 | 0.0 | 0.0 | 0.00 | 0.00 | 0.00 | 1002.6 |